Other Public Products
Issued by NWS Grand Forks, ND

Home | Current Version | Previous Version | Graphics & Text | Print | Product List | Glossary On
Versions: 1 2 3 4 5 6 7 8 9 10 11 12 13 14 15 16 17 18 19 20 21 22 23 24 25 26 27 28 29 30 31 32 33 34 35 36 37 38 39 40 41 42 43 44 45 46 47 48 49 50
000
FPUS83 KFGF 282210
OPUFGF
PRAIRIE TO PINES WEATHER ROUNDUP
NATIONAL WEATHER SERVICE EASTERN NORTH DAKOTA/GRAND FORKS ND
400 PM CST SUN DEC 28 2014

 **SATELLITE DATA USED TO AUGMENT SKY COVER AT AUTOMATED STATIONS**
 *****  WEATHER ACROSS EASTERN NORTH DAKOTA  *****

CITY           SKY/WX    TMP DP  RH WIND       PRES   REMARKS
GRAND FORKS    CLEAR      0  -7  72 N10       30.38R WCI -16
GRAND FORKS AF CLEAR     -1  -7  73 N10       30.38R WCI -17
GRAND CITY NWS   N/A      0 N/A N/A N12         N/A  WCI -18
BUXTON         NOT AVBL
DEVILS LAKE    CLEAR     -2 -11  65 N7        30.31R WCI -16
FARGO          CLEAR      4  -6  63 N17       30.34R WCI -16
WAHPETON ARPT  FAIR      10   0  61 N15       30.30R WCI  -6
$$

 *****  WEATHER ACROSS CENTRAL AND WESTERN NORTH DAKOTA  *****

CITY           SKY/WX    TMP DP  RH WIND       PRES   REMARKS
JAMESTOWN      CLOUDY     2  -5  72 N10       30.28R WCI -14
BISMARCK       FLURRIES   8   4  83 E12       30.24R WCI  -7
MINOT          CLOUDY     2  -4  76 N7        30.30R WCI -11
MINOT AFB      MOCLDY     0  -3  86 N8        30.31R WCI -14
GARRISON         N/A      6   1  80 NE8       30.24R WCI  -7
WILLISTON      CLOUDY    10   0  63 NE13      30.24R WCI  -5
DICKINSON      LGT SNOW  15   9  76 NE15      30.09R WCI   0
HETTINGER      LGT SNOW  20  15  81 E13       30.06R WCI   7
$$

 *****  OTHER OBSERVATIONS NORTHEAST NORTH DAKOTA  *****

CITY           SKY/WX    TMP DP  RH WIND       PRES   REMARKS
WALHALLA         N/A      0  -8  71 N8        30.39S WCI -15
LANGDON        FAIR      -4 -11  71 N9        30.30R WCI -20
CAVALIER       FAIR      -2  -9  71 N7        30.40R WCI -16
GRAFTON        NOT AVBL
CANDO          FAIR       0  -6  78 N7        30.33R WCI -13
FORT TOTTEN      N/A      1  -9  62 N2        29.95S
ROLLA          FAIR       0  -4  85 N9        30.29R WCI -16
RUGBY          FAIR       0  -4  85 NE3       30.32R
 ***** THE ABOVE OBSERVATIONS ARE NON NWS ARE NOT QUALITY
        CONTROLLED AND MAY MIS-REPORT RAIN FOR SNOW...
$$

 *****  OTHER OBSERVATIONS SOUTHEAST NORTH DAKOTA *****

CITY           SKY/WX    TMP DP  RH WIND       PRES   REMARKS
COOPERSTOWN    NOT AVBL
VALLEY CITY    FAIR       3   0  85 N8        30.29R WCI -10
OAKES            N/A      5   0  78 N13       30.27R WCI -12
GWINNER        CLOUDY     9   0  66 N14       30.29R WCI  -8
SHEYENNE NWR     N/A      5  -5  63 NE8       29.95S WCI  -8
BUFFALO        NOT AVBL
WYNDMERE         N/A      7   0  72 N10         N/A  WCI  -8
 ***** THE ABOVE OBSERVATIONS ARE NON NWS ARE NOT QUALITY
       CONTROLLED AND MAY MIS-REPORT RAIN FOR SNOW...
$$

  *****  WEATHER ACROSS NORTHERN MINNESOTA  *****

CITY           SKY/WX    TMP DP  RH WIND       PRES   REMARKS
FLAG ISLAND    CLEAR     -2  -9  71 NW9       30.29R WCI -18
WARROAD        CLEAR      1  -8  66 W8        30.30R WCI -12
ROSEAU         CLEAR      0  -8  71 W9          N/A  WCI -16
HALLOCK        CLEAR     -2  -9  71 NW13G18   30.38R WCI -21
THF RVR FALLS  CLEAR     -2  -8  78 NW12      30.32S WCI -20
HALSTAD          N/A      1  -8  68 N13         N/A  WCI -17
FOSSTON        CLEAR      3  -8  60 NW6       30.30R WCI  -8
BAUDETTE       CLEAR     -1 -11  62 NW6       30.27R WCI -13
WASKISH        CLEAR      3  -2  78 CALM      30.27R
CROOKSTON      CLEAR     -2  -9  71 N13       30.38R WCI -21
$$
  *****  WEATHER ACROSS CENTRAL AND WEST MINNESOTA  *****

CITY           SKY/WX    TMP DP  RH WIND       PRES   REMARKS
BEMIDJI        CLEAR      5  -5  63 N5        30.25R WCI  -4
PARK RAPIDS    CLEAR     12  -4  48 N9        30.22R WCI   0
WADENA         CLEAR     12   0  57 N7        30.21R WCI   2
DETROIT LAKES  CLEAR      9   1  72 N10       30.26R WCI  -6
MOORHEAD       CLEAR      5   0  78 N15       30.33R WCI -13
FERGUS FALLS   CLEAR     12   0  57 N9        30.29R WCI   0
ELBOW LAKE     FAIR      15   3  60 N9        30.23R WCI   3
MORRIS MN      CLEAR     16   9  73 NW9       30.23R WCI   4
STAPLES        CLEAR     12  -2  52 N7        30.22R WCI   2
WHEATON        CLEAR      9   1  72 NW8       30.30R WCI  -4
$$
  *****  WEATHER ELSEWHERE ACROSS MINNESOTA  *****

CITY           SKY/WX    TMP DP  RH WIND       PRES   REMARKS
DULUTH         CLEAR     10  -4  53 NW6       30.18R WCI   0
INTRNTL FALLS  CLEAR      0  -9  65 W8        30.25R WCI -14
ELY            CLEAR      3  -6  66 NW5       30.18R WCI  -6
CLOQUET        CLEAR     10  -6  48 NW8       30.20R WCI  -1
BRAINERD       CLEAR     13  -2  51 N9        30.23R WCI   1
HIBBING        CLEAR      7  -5  57 NW7       30.21R WCI  -5
ALEXANDRIA     CLEAR     18   2  49 N7        30.20R WCI   9
SAINT CLOUD    CLEAR     21   4  47 N8        30.22R WCI  11
MINNEAPOLIS    MOCLDY    23  14  68 N6        30.21R WCI  16
$$

  *****  WEATHER ACROSS SOUTH DAKOTA  *****

CITY           SKY/WX    TMP DP  RH WIND       PRES   REMARKS
SIOUX FALLS    CLOUDY    20  17  88 NE14      30.16R WCI   7
BROOKINGS      NOT AVBL
WATERTOWN      MOCLDY    14   8  77 NE7       30.18R WCI   4
HURON          CLOUDY    19  15  84 NE13      30.17S WCI   6
SISSETON         N/A      7   1  76 N12       30.27R WCI  -8
ABERDEEN       CLOUDY    10   1  67 NE13      30.25R WCI  -5
MITCHELL       MOCLDY    21  16  81 E9        30.17R WCI  11
PIERRE         CLOUDY    18  15  88 E17       30.11R WCI   3
MOBRIDGE       CLOUDY    15  11  83 E12       30.14R WCI   2
RAPID CITY     FLURRIES  24  18  77 E6        29.96R WCI  17
$$

  *****  SOME WEATHER IN NEARBY STATES *****

CITY           SKY/WX    TMP DP  RH WIND       PRES   REMARKS
GLASGOW MT     LGT SNOW  13   6  74 NE22      30.18R WCI  -6
GREAT FALLS MT SNOW      12  10  92 N13       30.17R VSB 1/4 WCI  -3
CHEYENNE WY    MOSUNNY   29  10  45 W16       29.82R WCI  17
SCOTTSBLUFF NE PTSUNNY   27  21  78 SE7       29.89R WCI  19
OMAHA NE       CLOUDY    33  20  58 SE6       30.13R
DES MOINES IA  PTCLDY    36  22  56 W3        30.14S
DAVENPORT IA   CLEAR     32  17  54 NW6       30.17S
CHICAGO IL     PTCLDY    34  13  41 W9        30.16R
EAU CLAIRE WI  CLEAR     18  12  77 CALM      30.19R
LA CROSSE WI   CLOUDY    26  18  71 N10       30.20R WCI  16
$$

  *****  SOME NATIONAL WEATHER *****

CITY           SKY/WX    TMP DP  RH WIND       PRES   REMARKS
LA GUARDIA NY  CLOUDY    50  40  68 N13       29.94R
RALEIGH NC     CLOUDY    59  55  87 SW7       30.04R
ATLANTA GA     CLOUDY    61  58  90 S3        30.05S
NEW ORLEANS LA CLOUDY    60  56  86 NW12      30.04S
OKLAHOMA CITY  SUNNY     43  23  45 SE9       30.10F
ALBUQUERQUE NM PTSUNNY   36  13  38 SE7       30.08F
SALT LAKE CITY CLOUDY    29  26  89 SE8       30.05F WCI  21
LOS ANGELES CA MOSUNNY   58  36  43 W7        30.18F
BOISE ID       CLOUDY    34  30  85 CALM      30.08S
SEATTLE WA     LGT RAIN  43  37  81 S6        30.18F
$$

*** WEATHER ACROSS MANITOBA...SASKATCHEWAN AND ONTARIO ***
                ***ONTARIO***

CITY           SKY/WX    TMP DP  RH WIND       PRES   REMARKS
GERALDTON      PTCLDY    -4 -11  71 W8        30.04R WCI -19
THUNDER BAY    PTCLDY     7  -4  61 NW10      30.19R WCI  -8
SIOUX LOOKOUT  PTCLDY    -9 -17  70 NW5       30.20R WCI -21
TORONTO        MOCLDY    36  23  60 W16       30.03R
BIG TROUT LK   CLEAR    -17 -24  70 W14G20    30.09R WCI -40
PICKLE LAKE    CRYSTALS -13 -20  70 W10       30.08R WCI -32
DRYDEN         CLEAR     -9 -13  84 W7        30.21R WCI -24
KENORA         CRYSTALS  -8 -13  77 W5        30.26R WCI -19
$$
                *** MANITOBA***

CITY           SKY/WX    TMP DP  RH WIND       PRES   REMARKS
BRANDON        PTCLDY    -6 -13  71 W8        30.36R WCI -21
DAUPHIN        CLEAR    -15 -20  76 W6        30.42R WCI -29
ISLAND LAKE    PTCLDY   -18 -26  69 W9        30.27R WCI -38
PILOT MOUND      N/A     -6 -11  77 W5          N/A  WCI -17
THE PAS        MOCLDY   -17 -24  70 NW9       30.48R WCI -36
THOMPSON       NOT AVBL
WINNIPEG       PTCLDY    -9 -17  70 NW12      30.41R WCI -29
CHURCHILL      CRYSTALS -13 -17  84 NW18      30.20R DRFTSNOWWCI -38
GILLAM         PTCLDY   -17 -24  70 W13G20    30.24R WCI -39
$$
                ***SASKATCHEWAN***

CITY           SKY/WX    TMP DP  RH WIND       PRES   REMARKS
ESTEVAN        CLOUDY     0  -9  65 N5        30.31R WCI -10
KINDERSLEY     NOT AVBL
LLOYDMINSTER   PTCLDY    -9 -15  77 NW3       30.44R
PRINCE ALBERT  MOCLDY   -11 -17  77 W6        30.50R WCI -25
REGINA         NOT AVBL
YORKTON        CLEAR    -11 -18  70 NW9       30.38R WCI -29



USA.gov is the U.S. government's official web portal to all federal, state and local government web resources and services.